#timestamp,LO_Frequency,Hit,StdDev 
1668247215.0,286047001.7,N
1668247215.9,286047001.7,N
1668247235.8,286047001.6,N
1668247255.6,286047004.1,N
1668247275.4,286047002.6,N
1668247295.3,286047002.0,N
1668247315.1,286046998.2,N
1668247335.8,286047000.5,N
1668247355.7,286047000.1,N
1668247375.5,286046999.2,N
1668247395.4,286046999.6,N
1668247415.2,286047000.7,N
1668247435.0,286047000.7,N
1668247435.9,286047000.7,N
1668247455.8,286047000.9,N
1668247475.6,286047002.7,N
1668247495.5,286046998.5,N
1668247515.3,286046998.6,N
1668247535.1,286047000.7,N
1668247555.9,286047000.4,N
1668247605.7,286047001.7,E
1668247615.7,286046999.7,N
1668247635.5,286047000.1,P
1668247655.3,286047001.6,P
1668247675.2,286047002.3,N
1668247695.0,286047001.6,N
1668247695.9,286047001.6,N
1668247715.7,286047001.8,N
1668247735.6,286047001.6,N
1668247755.4,286047002.3,N
1668247775.3,286047002.5,N
1668247795.1,286047002.2,N
1668247796.0,286047002.2,N
1668247815.8,286047000.5,N
1668247835.7,286047000.2,N
1668247855.5,286047000.5,N
1668247875.3,286046998.2,N
1668247895.2,286046998.5,N
1668247915.0,286047001.0,N
1668247915.9,286047001.0,N
1668247935.8,286046999.9,N
1668247955.6,286046999.9,N
1668247975.4,286047000.0,N
1668247995.3,286046998.2,N
1668248015.1,286046998.6,N
1668248035.9,286047000.8,N
1668248055.7,286047000.8,N
1668248075.5,286047001.0,N
1668248095.4,286046996.5,N
1668248115.2,286046997.3,N
1668248135.0,286046999.5,N
1668248136.0,286046999.5,N
1668248155.8,286046998.7,N
1668248175.6,286046998.1,N
1668248195.5,286047000.4,N
1668248215.3,286046998.3,N
1668248235.1,286046998.8,N
1668248255.9,286046998.6,N
1668248275.7,286046999.3,N
1668248295.6,286047001.0,N
1668248315.4,286046999.3,N
1668248335.2,286047001.1,N
1668248355.1,286046998.8,N
1668248356.0,286046998.8,N
1668248375.8,286046997.2,N
1668248395.6,286046998.0,N
1668248415.5,286046995.4,Y
1668248435.3,286046999.5,P
1668248455.2,286046997.3,P
1668248475.9,286046997.7,N
1668248495.7,286046997.0,Y
1668248515.6,286046998.3,P
1668248535.4,286046999.9,N
1668248555.2,286047000.2,N
1668248575.1,286046998.5,N
1668248576.0,286046998.5,N
1668248595.8,286046998.5,N
1668248615.7,286046999.3,N
1668248635.5,286046999.8,N
1668248655.3,286047002.6,Y
1668248675.2,286047003.1,P
1668248695.0,286047003.4,N
1668248695.9,286047003.4,N
1668248715.7,286047003.4,N
1668248735.6,286047005.6,Y
1668248755.4,286047002.9,P
1668248775.3,286047001.8,P
1668248795.1,286046999.8,N
1668248815.8,286047001.5,N
1668248835.7,286047000.0,N
1668248855.5,286047001.0,N
1668248875.3,286047000.7,N
1668248895.2,286047000.4,N
1668248915.0,286047000.1,N
1668248915.9,286047000.1,N
1668248935.8,286047000.5,N
1668248955.6,286047000.6,N
1668248975.4,286046999.7,N
1668248995.3,286047002.8,N
1668249015.1,286047002.8,N
1668249035.8,286047000.7,N
1668249055.7,286046996.6,Y
1668249075.5,286046997.3,P
1668249095.4,286046999.4,N
1668249115.2,286046998.4,N
1668249135.0,286047001.2,N
1668249135.9,286047001.2,N
1668249155.8,286046998.3,N
1668249175.6,286046998.1,N
1668249195.5,286047000.8,N
1668249215.3,286047002.8,N
1668249235.1,286047002.4,N
1668249255.9,286047002.7,N
1668249275.7,286047000.2,N
1668249295.6,286047000.4,N
1668249315.4,286047002.3,N
1668249335.2,286046999.7,N
1668249355.1,286047002.1,N
1668249356.0,286047002.1,N
1668249375.8,286047001.5,N
1668249395.6,286047001.9,N
1668249415.5,286047004.1,N
1668249435.3,286047003.5,N
1668249455.2,286047003.8,N
1668249475.9,286047003.5,N
1668249495.7,286047003.7,N
1668249515.6,286047003.5,N
1668249535.4,286047004.0,N
1668249555.3,286047003.7,N
1668249575.1,286047000.9,N
1668249576.0,286047000.9,N
1668249595.8,286047001.0,N
1668249615.7,286047001.2,N
1668249635.5,286046996.6,N
1668249655.4,286046999.4,N
1668249675.2,286046998.2,N
1668249695.0,286047000.9,N
1668249695.9,286047000.9,N
1668249715.8,286047002.5,N
1668249735.6,286047000.5,N
1668249755.5,286047001.4,N
1668249775.3,286047002.8,N
1668249795.1,286047000.3,N
1668249815.9,286046999.0,N
1668249835.7,286046997.1,N
1668249855.5,286046997.1,N
1668249875.4,286046998.1,N
1668249895.2,286046998.3,N
1668249915.1,286046998.8,N
1668249916.0,286046998.8,N
1668249935.8,286046999.9,N
1668249955.6,286047000.3,N
1668249975.5,286047000.2,N
1668249995.3,286047000.8,N
1668250015.2,286047000.7,N
1668250035.9,286047000.9,N
1668250055.7,286046998.2,N
1668250075.6,286047000.0,N
1668250095.4,286046999.7,N
1668250115.2,286046999.9,N
1668250135.1,286047001.2,N
1668250136.0,286047001.2,N
1668250155.8,286046998.4,N
1668250175.7,286046999.7,N
1668250195.5,286047000.2,N
1668250215.3,286047001.1,N
1668250235.2,286047001.2,N
1668250255.0,286046998.1,N
1668250255.9,286046998.1,N
1668250275.7,286047001.1,N
1668250295.6,286046999.7,N
1668250315.4,286047002.4,N
1668250335.3,286047002.1,N
1668250355.1,286047000.5,N
1668250356.0,286047000.5,N
1668250375.8,286047000.3,N
1668250395.7,286047002.8,N
1668250415.5,286047002.3,N
1668250435.3,286047001.9,N
1668250455.2,286047001.3,N
1668250475.0,286047001.5,N
1668250475.9,286047001.5,N
1668250495.8,286047001.7,N
1668250515.6,286046998.3,N
1668250535.4,286047001.2,N
1668250555.3,286047000.9,N
1668250575.1,286046998.1,N
1668250595.8,286046997.7,N
1668250615.7,286046995.0,Y
1668250635.5,286046996.8,P
1668250655.4,286046999.5,N
1668250675.2,286046999.5,N
1668250695.0,286046994.9,Y
1668250695.9,286046994.9,P
1668250715.8,286047001.2,N
1668250735.6,286046998.5,N
1668250755.5,286047000.9,N
1668250775.3,286047000.6,N
1668250795.1,286047002.4,N
